St. Johns, AZ

2:53 PM MST on April 23, 2018 (GMT -0700)
Saint Johns Industrial

Weather History for KSJN - June, 2013

Change the Weather History Date:

Sunday, June 9, 2013

  Actual Average (KLSB) Record (KLSB)
Temperature  
Mean Temperature 73 °F -  
Max Temperature 95 °F 91 °F 100 °F (2013)
Min Temperature 51 °F 53 °F 62 °F (2015)
Cooling Degree Days 8    
Growing Degree Days 23 (Base 50)    
Moisture  
Dew Point 23 °F    
Average Humidity 12    
Maximum Humidity 22    
Minimum Humidity 5    
Precipitation  
Precipitation 0.00 in - - ()
Sea Level Pressure  
Sea Level Pressure 29.75 in    
Wind  
Wind Speed 6 mph (WNW)    
Max Wind Speed 20 mph    
Max Gust Speed 16 mph    
Visibility 10 miles    
Events      
Averages and records for this station are not official NWS values.
T = Trace of Precipitation, MM = Missing Value Source: NWS Daily Summary

Daily Weather History Graph

Daily Weather History Graph

Search for Another Location

Airport or City:

Astronomy

Jun. 09, 2013 Rise Set
Actual Time 5:04 AM MST 7:29 PM MST
Civil Twilight 4:35 AM MST 7:58 PM MST
Nautical Twilight 3:59 AM MST 8:34 PM MST
Astronomical Twilight 3:19 AM MST 9:14 PM MST
Moon 6:01 AM MST (6/9) 8:21 PM MST (6/9)
Length of Visible Light 15h 23m
Length of Day
14h 25m
New Moon, 1% of the Moon is Illuminated
Jun 9
New Moon
Jun 16
First Quarter
Jun 23
Full
Jun 29
Last Quarter
Jul 8
New

Hourly Weather History & Observations

Time (MST) Temp. Dew Point Humidity Pressure Visibility Wind Dir Wind Speed Gust Speed Precip Events Conditions
12:54 AM 72.0 °F 25.0 °F 17% 29.71 in 10.0 mi WSW 10.4 mph - N/A   Clear
1:54 AM 70.0 °F 25.0 °F 18% 29.72 in 10.0 mi Calm Calm - N/A   Clear
2:54 AM 69.1 °F 25.0 °F 19% 29.72 in 10.0 mi Calm Calm - N/A   Clear
3:54 AM 66.0 °F 25.0 °F 21% 29.73 in 10.0 mi Calm Calm - N/A   Clear
4:54 AM 68.0 °F 25.0 °F 20% 29.74 in 10.0 mi WSW 3.5 mph - N/A   Clear
5:54 AM 68.0 °F 26.1 °F 21% 29.76 in 10.0 mi Calm Calm - N/A   Clear
6:54 AM 73.0 °F 27.0 °F 18% 29.78 in 10.0 mi Calm Calm - N/A   Clear
7:54 AM 75.9 °F 27.0 °F 16% 29.80 in 10.0 mi Calm Calm - N/A   Clear
8:54 AM 82.0 °F 25.0 °F 12% 29.79 in 10.0 mi WNW 9.2 mph 16.1 mph N/A   Clear
9:54 AM 84.9 °F 25.0 °F 11% 29.78 in 10.0 mi West 5.8 mph - N/A   Clear
10:54 AM 88.0 °F 24.1 °F 10% 29.78 in 10.0 mi West 8.1 mph - N/A   Clear
11:54 AM 91.9 °F 24.1 °F 9% 29.76 in 10.0 mi NW 11.5 mph 16.1 mph N/A   Clear
12:54 PM 91.9 °F 21.9 °F 8% 29.75 in 10.0 mi WNW 8.1 mph 16.1 mph N/A   Clear
1:54 PM 93.9 °F 18.0 °F 6% 29.73 in 10.0 mi NNW 8.1 mph 16.1 mph N/A   Clear
2:54 PM 93.9 °F 17.1 °F 6% 29.71 in 10.0 mi Calm Calm - N/A   Clear
3:54 PM 96.1 °F 17.1 °F 6% 29.70 in 10.0 mi NNE 9.2 mph - N/A   Clear
4:54 PM 96.1 °F 15.1 °F 5% 29.68 in 10.0 mi NW 10.4 mph - N/A   Clear
5:54 PM 95.0 °F 12.9 °F 5% 29.67 in 10.0 mi North 6.9 mph - N/A   Clear
6:54 PM 93.0 °F 14.0 °F 5% 29.68 in 10.0 mi North 6.9 mph - N/A   Clear
7:54 PM 79.0 °F 24.1 °F 13% 29.71 in 10.0 mi NW 3.5 mph - N/A   Clear
8:54 PM 82.0 °F 25.0 °F 12% 29.71 in 10.0 mi WSW 13.8 mph - N/A   Clear
9:54 PM 79.0 °F 24.1 °F 13% 29.73 in 10.0 mi WSW 17.3 mph - N/A   Clear
10:54 PM 77.0 °F 23.0 °F 13% 29.73 in 10.0 mi WSW 16.1 mph - N/A   Clear
11:54 PM 77.0 °F 21.0 °F 12% 29.73 in 10.0 mi WSW 19.6 mph - N/A   Clear